Погода в Вербе

Украина / Ровненская область     50°16′48″N   25°36′02″E
темп.,
°C
ветер,
м/с
пор.,
м/с
влажн.,
%
обл.,
%
осадки,
мм/ч
давл.,
гПа
погр.,
м
19 января, вт
вт1923:00−17з23920 0.0 102450
02:00−17з229223 0.0 102331
05:00−16юз119492 0.0 102226
08:00−16ююз229281 0.0 102221
11:00−12ю228211 0.0 1021148
14:00−8ю24846 0.0 1019268
17:00−8ю349586 0.2 1019105
20:00−8ю369587 0.4 1018154
20 января, ср
ср2023:00−6ю379693 0.7 1018232
02:00−6ю359597 1.3 1017129
05:00−6ююв4692100 0.0 1016114
08:00−6ююв4887100 0.0 1016165
11:00−3ю5109199 0.1 1016352
14:00−1ю6109799 1.2 1015455
17:000ююз4898100 0.8 1015331
20:000ю51188100 0.9 1015265
21 января, чт
чт2123:00−1ю51187100 0.0 1015239
02:000ю4118696 0.0 1014239
05:00−1ю5108594 0.0 1014208
08:00−1ю598572 0.0 1014147
11:00+2ю511873 0.0 1013261
14:00+3ю612947 0.0 1013257
17:00+3ю613859 0.0 1012224
20:00+3ю7148034 0.0 1012257
22 января, пт
пт2223:00+3ю716777 0.0 1010311
02:00+3ю8177741 0.0 1010426
05:00+3ююз6168199 0.0 1009443
08:00+3ю7157696 0.0 1008291
11:00+3ю7138296 0.0 1008276
14:00+4ю5138798 0.0 1006297
17:00+4ю61385100 0.0 1005231
20:00+4ю61382100 0.1 1004265
23 января, сб
сб2323:00+4ю61384100 0.1 1003254
02:00+4ю51288100 0.1 1003264
05:00+4ююз51486100 0.0 1002303
08:00+4зюз51194100 0.6 1005303
11:00+3з479590 0.1 1007439
14:00+2зюз239295 0.1 1007101
17:00+1в3593100 0.0 1006111
20:00+1в6109399 0.0 1004331